Location: Ay?beleni
(36.6500°N, 30.3000°E)
Time: 04:33:38
(UTC+00:00)

Nadezhda 1 Rocket - Pass Details

Date: 07 August 2020
Orbit: 940 x 1006 km, 83.0° (Epoch: 22 September)

Event Time Altitude Azimuth Distance (km) Brightness Sun altitude
Rises 02:05:46 0° 127° (SE) 3,721 7.3 -12.3°
Reaches altitude 10° 02:10:43 10° 93° (E) 2,780 7.3 -11.5°
Maximum altitude 02:12:14 11° 79° (E) 2,716 7.6 -11.2°
Drops below altitude 10° 02:13:44 10° 65° (ENE) 2,783 8.0 -11.0°
Sets 02:18:40 0° 32° (NNE) 3,734 8.2 -10.1°
